SL-8 R/B

Satellite information

Favourite Embed

Satellite Type and Status

ROCKET BODYIN ORBIT

Key statistics

Satellite SL-8 R/B at a glance.

Uptime

18093

Days in orbit

Revolutions

≈ 13.8

Per day

Orbit

LEO

Low Earth Orbit

Inclination

83.0

Latest

Satellite identification and parameters

Extended collection of information and parameters for SL-8 R/B.

Object identification

Identified? True

Debris? False

Object name: SL-8 R/B

International designator: 1976-051B

Object number (NORAD): 8874

Object ID (CCSDS): 8874

Country: COMMONWEALTH OF INDEPENDENT STATES (CIS)

Current information (Y/N): Y

RCS size: LARGE

Orbital parameters

Period: 104.707 minutes

Inclination: 82.9586 deg

SMA: 7358.869 km

Apoapsis: 997.498 km

Periapsis: 963.97 km

RAAN: 231.1599 deg

Eccentricy: 0.00227806

Argument of periapsis: 279.311 deg

Mean anomaly: 80.547 deg

Mean motion: 13.75264365 rev/day

Mean motion (dot): 0.00000109 rev/day2

B* drag term: 0.000097606792 1/REarth

Two-line elements (TLE)

Creation date: Dec. 14, 2025, 6:24 p.m.

Reference frame: TEME

Reference center: EARTH

Epoch: Dec. 14, 2025, 4:43 a.m. UTC

TLE line 0: 0 SL-8 R/B

TLE line 1: 1 08874U 76051B 25348.19710993 .00000109 00000-0 97607-4 0 9990

TLE line 2: 2 08874 82.9586 231.1599 0022781 279.3110 80.5470 13.75264365484518

Live tracking on map

Real-time ground track for satellite SL-8 R/B.

In-orbit conjunctions

A list of the most updated potential collisions computed for object SL-8 R/B.

Target Orbit TCA Probability of collision Miss distance Type
FENGYUN 1C DEB SSO 2025-02-07 13:28:22 0.0006284817 65.0 (m) DEBRIS

Associated space launch

The first soviet navigation system called Tsiklon consisted of Zaliv satellites in low earth orbit.

SL-8 R/B was lifted into orbit during the mission ‘Kosmos-3M | Zaliv 21’, on board a Kosmos-3M space rocket.

The launch took place on June 2, 1976, 10:30 p.m. from 132/2.

For more information about the launch, click the button.

Launch to space Kosmos-3M | Zaliv 21
Kosmos-3M | Zaliv 21

Agency: N/A

Status: Launch Successful

Launch date: June 2, 1976, 10:30 p.m. UTC

Rocket: Kosmos-3M

Launch pad: 132/2

Location: Plesetsk Cosmodrome, Russian Federation

...

Latest news about this satellite

There are no fresh news available about this satellite. Check back as we update our databases every day.


Newsletter sign-up

Weekly statistics, charts and insights to help you stay on top of the space industry.